Terminal Aerodrome Forecast
Issued by NWS Twin Cities, MN

Home | Current Version | Previous Version | Text Only | Print | Product List | Glossary Off
Versions: 1 2 3 4 5 6 7 8 9 10 11 12 13 14 15 16 17 18 19 20 21 22 23 24 25 26 27

000
FTUS43 KMPX 071137
TAFMSP
TAF
KMSP 071137Z 0712/0818 26015G22KT P6SM -SN OVC025
     FM071500 27017G27KT P6SM OVC025
     FM080400 28014G22KT 4SM -SN BR OVC020=

USA.gov is the U.S. government's official web portal to all federal, state and local government web resources and services.